Tracking 27401 objects as of 4-Jun-2023
HD Live streaming from Space Station
objects crossing your sky now

ZY 3

Track ZY 3 now!
10-day predictions
ZY 3 is classified as:


NORAD ID: 38046
Int'l Code: 2012-001A
Perigee: 497.4 km
Apogee: 505.7 km
Inclination: 97.3 °
Period: 94.5 minutes
Semi major axis: 6872 km
RCS: 5.391 m2 (large)
Launch date: January 9, 2012
Source: People's Republic of China (PRC)
Launch site: Taiyaun Space Center, China (TSC)
Your satellite tracking list
Your tracking list is empty




NASA's NSSDC Master Catalog

Two Line Element Set (TLE):
1 38046U 12001A   23154.76171746  .00007364  00000-0  30861-3 0  9990
2 38046  97.2961 221.3339 0006069  79.7962 280.3960 15.23788323633047
Source of the keplerian elements: AFSPC